contact:dominique.lefevre@mio.osupytheas.fr, maurice.libes@osupytheas.fr, didier.mallarino@osupytheas.fr
Project:EMSO http://www.emso-fr.org/EMSO-France
Depth: 2436.0 m
Title:EMSO Ligure Ouest : Data MII capteur MICROCAT
DateTime_Computer,Latitude,Longitude,Temperature,Conductivity,Pressure,DateTime_Instrument
DateTime_Computer,Latitude,Longitude,degC,S m-1,dbar,DateTime_Instrument
2022-03-07T00:00:35Z,42.805,6.029,13.3043,4.60086,2470.427,2022-3-07T02:02:10Z
2022-03-07T00:03:38Z,42.805,6.029,13.3045,4.60079,2470.46,2022-3-07T02:05:13Z
2022-03-07T00:06:41Z,42.805,6.029,13.3046,4.60079,2470.413,2022-3-07T02:08:17Z
2022-03-07T00:09:45Z,42.805,6.029,13.3041,4.60079,2470.45,2022-3-07T02:11:20Z
2022-03-07T00:12:48Z,42.805,6.029,13.3041,4.60080,2470.39,2022-3-07T02:14:23Z
2022-03-07T00:15:51Z,42.805,6.029,13.3041,4.60081,2470.46,2022-3-07T02:17:26Z
2022-03-07T00:18:54Z,42.805,6.029,13.3043,4.60081,2470.427,2022-3-07T02:20:29Z
2022-03-07T00:21:57Z,42.805,6.029,13.3043,4.60080,2470.427,2022-3-07T02:23:32Z
2022-03-07T00:25:00Z,42.805,6.029,13.3043,4.60081,2470.437,2022-3-07T02:26:35Z
2022-03-07T00:28:03Z,42.805,6.029,13.3046,4.60081,2470.413,2022-3-07T02:29:38Z
2022-03-07T00:31:06Z,42.805,6.029,13.3043,4.60081,2470.45,2022-3-07T02:32:42Z
2022-03-07T00:34:09Z,42.805,6.029,13.3043,4.60079,2470.39,2022-3-07T02:35:45Z
2022-03-07T00:37:13Z,42.805,6.029,13.3042,4.60080,2470.437,2022-3-07T02:38:48Z
2022-03-07T00:40:16Z,42.805,6.029,13.3043,4.60081,2470.413,2022-3-07T02:41:51Z
2022-03-07T00:43:19Z,42.805,6.029,13.3045,4.60081,2470.427,2022-3-07T02:44:54Z
2022-03-07T00:46:22Z,42.805,6.029,13.3041,4.60079,2470.404,2022-3-07T02:47:57Z
2022-03-07T00:49:25Z,42.805,6.029,13.3039,4.60079,2470.427,2022-3-07T02:51:00Z
2022-03-07T00:52:28Z,42.805,6.029,13.3042,4.60080,2470.39,2022-3-07T02:54:03Z
2022-03-07T00:55:31Z,42.805,6.029,13.3043,4.60080,2470.39,2022-3-07T02:57:06Z
2022-03-07T00:58:34Z,42.805,6.029,13.3044,4.60079,2470.413,2022-3-07T03:00:10Z
2022-03-07T01:01:38Z,42.805,6.029,13.3044,4.60079,2470.39,2022-3-07T03:03:13Z
2022-03-07T01:04:41Z,42.805,6.029,13.3042,4.60079,2470.404,2022-3-07T03:06:16Z
2022-03-07T01:07:44Z,42.805,6.029,13.3042,4.60079,2470.404,2022-3-07T03:09:19Z
2022-03-07T01:10:47Z,42.805,6.029,13.3039,4.60080,2470.366,2022-3-07T03:12:22Z
2022-03-07T01:13:50Z,42.805,6.029,13.3044,4.60079,2470.39,2022-3-07T03:15:25Z
2022-03-07T01:16:53Z,42.805,6.029,13.3042,4.60084,2470.413,2022-3-07T03:18:28Z
2022-03-07T01:19:56Z,42.805,6.029,13.3040,4.60079,2470.39,2022-3-07T03:21:31Z
2022-03-07T01:22:59Z,42.805,6.029,13.3046,4.60084,2470.39,2022-3-07T03:24:35Z
2022-03-07T01:26:02Z,42.805,6.029,13.3043,4.60079,2470.366,2022-3-07T03:27:38Z
2022-03-07T01:29:06Z,42.805,6.029,13.3043,4.60084,2470.413,2022-3-07T03:30:41Z
2022-03-07T01:32:09Z,42.805,6.029,13.3046,4.60079,2470.404,2022-3-07T03:33:44Z
2022-03-07T01:35:12Z,42.805,6.029,13.3043,4.60082,2470.413,2022-3-07T03:36:47Z
2022-03-07T01:38:15Z,42.805,6.029,13.3041,4.60079,2470.39,2022-3-07T03:39:50Z
2022-03-07T01:41:18Z,42.805,6.029,13.3039,4.60079,2470.39,2022-3-07T03:42:53Z
2022-03-07T01:44:21Z,42.805,6.029,13.3044,4.60079,2470.413,2022-3-07T03:45:56Z
2022-03-07T01:47:24Z,42.805,6.029,13.3042,4.60079,2470.404,2022-3-07T03:48:59Z
2022-03-07T01:50:27Z,42.805,6.029,13.3043,4.60079,2470.404,2022-3-07T03:52:03Z
2022-03-07T01:53:31Z,42.805,6.029,13.3042,4.60081,2470.38,2022-3-07T03:55:06Z
2022-03-07T01:56:34Z,42.805,6.029,13.3040,4.60080,2470.38,2022-3-07T03:58:09Z
2022-03-07T01:59:37Z,42.805,6.029,13.3043,4.60079,2470.343,2022-3-07T04:01:12Z
2022-03-07T02:02:40Z,42.805,6.029,13.3041,4.60081,2470.366,2022-3-07T04:04:15Z
2022-03-07T02:05:43Z,42.805,6.029,13.3043,4.60080,2470.39,2022-3-07T04:07:18Z
2022-03-07T02:08:46Z,42.805,6.029,13.3042,4.60081,2470.404,2022-3-07T04:10:21Z
2022-03-07T02:11:49Z,42.805,6.029,13.3041,4.60083,2470.366,2022-3-07T04:13:24Z
2022-03-07T02:14:52Z,42.805,6.029,13.3043,4.60081,2470.343,2022-3-07T04:16:28Z
2022-03-07T02:17:55Z,42.805,6.029,13.3046,4.60080,2470.357,2022-3-07T04:19:31Z
2022-03-07T02:20:59Z,42.805,6.029,13.3043,4.60081,2470.366,2022-3-07T04:22:34Z
2022-03-07T02:24:02Z,42.805,6.029,13.3046,4.60081,2470.38,2022-3-07T04:25:37Z
2022-03-07T02:27:05Z,42.805,6.029,13.3039,4.60083,2470.343,2022-3-07T04:28:40Z
2022-03-07T02:30:08Z,42.805,6.029,13.3042,4.60082,2470.366,2022-3-07T04:31:43Z
2022-03-07T02:33:11Z,42.805,6.029,13.3044,4.60083,2470.32,2022-3-07T04:34:46Z
2022-03-07T02:36:14Z,42.805,6.029,13.3045,4.60081,2470.366,2022-3-07T04:37:49Z
2022-03-07T02:39:17Z,42.805,6.029,13.3043,4.60081,2470.343,2022-3-07T04:40:52Z
2022-03-07T02:42:20Z,42.805,6.029,13.3043,4.60081,2470.343,2022-3-07T04:43:56Z
2022-03-07T02:45:24Z,42.805,6.029,13.3043,4.60084,2470.343,2022-3-07T04:46:59Z
2022-03-07T02:48:27Z,42.805,6.029,13.3040,4.60079,2470.343,2022-3-07T04:50:02Z
2022-03-07T02:51:30Z,42.805,6.029,13.3046,4.60079,2470.32,2022-3-07T04:53:05Z
2022-03-07T02:54:33Z,42.805,6.029,13.3046,4.60081,2470.366,2022-3-07T04:56:08Z
2022-03-07T02:57:36Z,42.805,6.029,13.3048,4.60080,2470.366,2022-3-07T04:59:11Z
2022-03-07T03:00:39Z,42.805,6.029,13.3044,4.60082,2470.343,2022-3-07T05:02:14Z
2022-03-07T03:03:42Z,42.805,6.029,13.3041,4.60080,2470.32,2022-3-07T05:05:17Z
2022-03-07T03:06:45Z,42.805,6.029,13.3044,4.60081,2470.38,2022-3-07T05:08:21Z
2022-03-07T03:09:48Z,42.805,6.029,13.3045,4.60080,2470.32,2022-3-07T05:11:24Z
2022-03-07T03:12:52Z,42.805,6.029,13.3042,4.60082,2470.343,2022-3-07T05:14:27Z
2022-03-07T03:15:55Z,42.805,6.029,13.3040,4.60079,2470.343,2022-3-07T05:17:30Z
2022-03-07T03:18:58Z,42.805,6.029,13.3043,4.60084,2470.357,2022-3-07T05:20:33Z
2022-03-07T03:22:01Z,42.805,6.029,13.3038,4.60079,2470.32,2022-3-07T05:23:36Z
2022-03-07T03:25:04Z,42.805,6.029,13.3043,4.60079,2470.343,2022-3-07T05:26:39Z
2022-03-07T03:28:07Z,42.805,6.029,13.3041,4.60078,2470.334,2022-3-07T05:29:42Z
2022-03-07T03:31:10Z,42.805,6.029,13.3041,4.60077,2470.357,2022-3-07T05:32:45Z
2022-03-07T03:34:13Z,42.805,6.029,13.3040,4.60076,2470.297,2022-3-07T05:35:49Z
2022-03-07T03:37:16Z,42.805,6.029,13.3039,4.60076,2470.357,2022-3-07T05:38:52Z
2022-03-07T03:40:20Z,42.805,6.029,13.3036,4.60079,2470.38,2022-3-07T05:41:55Z
2022-03-07T03:43:23Z,42.805,6.029,13.3039,4.60080,2470.343,2022-3-07T05:44:58Z
2022-03-07T03:46:26Z,42.805,6.029,13.3040,4.60075,2470.334,2022-3-07T05:48:01Z
2022-03-07T03:49:29Z,42.805,6.029,13.3040,4.60077,2470.334,2022-3-07T05:51:04Z
2022-03-07T03:52:32Z,42.805,6.029,13.3039,4.60076,2470.334,2022-3-07T05:54:07Z
2022-03-07T03:55:35Z,42.805,6.029,13.3036,4.60072,2470.32,2022-3-07T05:57:10Z
2022-03-07T03:58:38Z,42.805,6.029,13.3041,4.60074,2470.334,2022-3-07T06:00:14Z
2022-03-07T04:01:41Z,42.805,6.029,13.3041,4.60073,2470.347,2022-3-07T06:03:17Z
2022-03-07T04:04:45Z,42.805,6.029,13.3036,4.60072,2470.32,2022-3-07T06:06:20Z
2022-03-07T04:07:48Z,42.805,6.029,13.3033,4.60072,2470.38,2022-3-07T06:09:23Z
2022-03-07T04:10:51Z,42.805,6.029,13.3034,4.60072,2470.357,2022-3-07T06:12:26Z
2022-03-07T04:13:54Z,42.805,6.029,13.3033,4.60070,2470.343,2022-3-07T06:15:29Z
2022-03-07T04:16:57Z,42.805,6.029,13.3032,4.60072,2470.31,2022-3-07T06:18:32Z
2022-03-07T04:20:00Z,42.805,6.029,13.3030,4.60067,2470.357,2022-3-07T06:21:35Z
2022-03-07T04:23:03Z,42.805,6.029,13.3031,4.60069,2470.357,2022-3-07T06:24:38Z
2022-03-07T04:26:06Z,42.805,6.029,13.3032,4.60067,2470.32,2022-3-07T06:27:42Z
2022-03-07T04:29:09Z,42.805,6.029,13.3029,4.60068,2470.357,2022-3-07T06:30:45Z
2022-03-07T04:32:13Z,42.805,6.029,13.3029,4.60067,2470.366,2022-3-07T06:33:48Z
2022-03-07T04:35:16Z,42.805,6.029,13.3029,4.60065,2470.32,2022-3-07T06:36:51Z
2022-03-07T04:38:19Z,42.805,6.029,13.3031,4.60064,2470.334,2022-3-07T06:39:54Z
2022-03-07T04:41:22Z,42.805,6.029,13.3031,4.60064,2470.357,2022-3-07T06:42:57Z
2022-03-07T04:44:25Z,42.805,6.029,13.3029,4.60065,2470.32,2022-3-07T06:46:00Z
2022-03-07T04:47:28Z,42.805,6.029,13.3026,4.60059,2470.366,2022-3-07T06:49:03Z
2022-03-07T04:50:31Z,42.805,6.029,13.3021,4.60057,2470.343,2022-3-07T06:52:07Z
2022-03-07T04:53:34Z,42.805,6.029,13.3022,4.60057,2470.366,2022-3-07T06:55:10Z
2022-03-07T04:56:38Z,42.805,6.029,13.3025,4.60056,2470.334,2022-3-07T06:58:13Z
2022-03-07T04:59:41Z,42.805,6.029,13.3023,4.60057,2470.366,2022-3-07T07:01:16Z
2022-03-07T05:02:44Z,42.805,6.029,13.3027,4.60058,2470.32,2022-3-07T07:04:19Z
2022-03-07T05:05:47Z,42.805,6.029,13.3022,4.60055,2470.343,2022-3-07T07:07:22Z
2022-03-07T05:08:50Z,42.805,6.029,13.3025,4.60054,2470.366,2022-3-07T07:10:25Z
2022-03-07T05:11:53Z,42.805,6.029,13.3022,4.60057,2470.334,2022-3-07T07:13:28Z
2022-03-07T05:14:56Z,42.805,6.029,13.3025,4.60052,2470.32,2022-3-07T07:16:31Z
2022-03-07T05:17:59Z,42.805,6.029,13.3020,4.60052,2470.343,2022-3-07T07:19:35Z
2022-03-07T05:21:03Z,42.805,6.029,13.3019,4.60055,2470.334,2022-3-07T07:22:38Z
2022-03-07T05:24:06Z,42.805,6.029,13.3020,4.60052,2470.357,2022-3-07T07:25:41Z
2022-03-07T05:27:09Z,42.805,6.029,13.3021,4.60054,2470.366,2022-3-07T07:28:44Z
2022-03-07T05:30:12Z,42.805,6.029,13.3020,4.60052,2470.357,2022-3-07T07:31:47Z
2022-03-07T05:33:15Z,42.805,6.029,13.3020,4.60051,2470.357,2022-3-07T07:34:50Z
2022-03-07T05:36:18Z,42.805,6.029,13.3019,4.60054,2470.366,2022-3-07T07:37:53Z
2022-03-07T05:39:21Z,42.805,6.029,13.3017,4.60054,2470.334,2022-3-07T07:40:56Z
2022-03-07T05:42:24Z,42.805,6.029,13.3018,4.60053,2470.343,2022-3-07T07:44:00Z
2022-03-07T05:45:27Z,42.805,6.029,13.3021,4.60052,2470.366,2022-3-07T07:47:03Z
2022-03-07T05:48:31Z,42.805,6.029,13.3015,4.60050,2470.334,2022-3-07T07:50:06Z
2022-03-07T05:51:34Z,42.805,6.029,13.3019,4.60047,2470.38,2022-3-07T07:53:09Z
2022-03-07T05:54:37Z,42.805,6.029,13.3014,4.60050,2470.343,2022-3-07T07:56:12Z
2022-03-07T05:57:40Z,42.805,6.029,13.3015,4.60049,2470.366,2022-3-07T07:59:15Z
2022-03-07T06:00:43Z,42.805,6.029,13.3014,4.60047,2470.366,2022-3-07T08:02:18Z
2022-03-07T06:03:46Z,42.805,6.029,13.3015,4.60048,2470.38,2022-3-07T08:05:21Z
2022-03-07T06:06:49Z,42.805,6.029,13.3014,4.60050,2470.353,2022-3-07T08:08:24Z
2022-03-07T06:09:52Z,42.805,6.029,13.3018,4.60049,2470.366,2022-3-07T08:11:28Z
2022-03-07T06:12:55Z,42.805,6.029,13.3014,4.60051,2470.357,2022-3-07T08:14:31Z
2022-03-07T06:15:59Z,42.805,6.029,13.3014,4.60047,2470.39,2022-3-07T08:17:34Z
2022-03-07T06:19:02Z,42.805,6.029,13.3017,4.60049,2470.38,2022-3-07T08:20:37Z
2022-03-07T06:22:05Z,42.805,6.029,13.3015,4.60047,2470.39,2022-3-07T08:23:40Z
2022-03-07T06:25:08Z,42.805,6.029,13.3014,4.60049,2470.427,2022-3-07T08:26:43Z
2022-03-07T06:28:11Z,42.805,6.029,13.3016,4.60048,2470.366,2022-3-07T08:29:46Z
2022-03-07T06:31:14Z,42.805,6.029,13.3012,4.60049,2470.404,2022-3-07T08:32:49Z
2022-03-07T06:34:17Z,42.805,6.029,13.3019,4.60051,2470.366,2022-3-07T08:35:53Z
2022-03-07T06:37:20Z,42.805,6.029,13.3011,4.60046,2470.38,2022-3-07T08:38:56Z
2022-03-07T06:40:24Z,42.805,6.029,13.3012,4.60048,2470.413,2022-3-07T08:41:59Z
2022-03-07T06:43:27Z,42.805,6.029,13.3013,4.60046,2470.38,2022-3-07T08:45:02Z
2022-03-07T06:46:30Z,42.805,6.029,13.3011,4.60045,2470.413,2022-3-07T08:48:05Z
2022-03-07T06:49:33Z,42.805,6.029,13.3019,4.60046,2470.413,2022-3-07T08:51:08Z
2022-03-07T06:52:36Z,42.805,6.029,13.3011,4.60046,2470.404,2022-3-07T08:54:11Z
2022-03-07T06:55:39Z,42.805,6.029,13.3011,4.60044,2470.413,2022-3-07T08:57:14Z
2022-03-07T06:58:42Z,42.805,6.029,13.3014,4.60046,2470.404,2022-3-07T09:00:17Z
2022-03-07T07:01:45Z,42.805,6.029,13.3009,4.60046,2470.39,2022-3-07T09:03:21Z
2022-03-07T07:04:48Z,42.805,6.029,13.3015,4.60044,2470.413,2022-3-07T09:06:24Z
2022-03-07T07:07:52Z,42.805,6.029,13.3014,4.60046,2470.427,2022-3-07T09:09:27Z
2022-03-07T07:10:55Z,42.805,6.029,13.3014,4.60045,2470.39,2022-3-07T09:12:30Z
2022-03-07T07:13:58Z,42.805,6.029,13.3011,4.60047,2470.413,2022-3-07T09:15:33Z
2022-03-07T07:17:01Z,42.805,6.029,13.3011,4.60045,2470.437,2022-3-07T09:18:36Z
2022-03-07T07:20:04Z,42.805,6.029,13.3013,4.60048,2470.437,2022-3-07T09:21:39Z
2022-03-07T07:23:07Z,42.805,6.029,13.3014,4.60046,2470.437,2022-3-07T09:24:42Z
2022-03-07T07:26:10Z,42.805,6.029,13.3015,4.60046,2470.46,2022-3-07T09:27:45Z
2022-03-07T07:29:13Z,42.805,6.029,13.3010,4.60042,2470.413,2022-3-07T09:30:49Z
2022-03-07T07:32:17Z,42.805,6.029,13.3009,4.60043,2470.413,2022-3-07T09:33:52Z
2022-03-07T07:35:20Z,42.805,6.029,13.3009,4.60041,2470.483,2022-3-07T09:36:55Z
2022-03-07T07:38:23Z,42.805,6.029,13.3006,4.60039,2470.437,2022-3-07T09:39:58Z
2022-03-07T07:41:26Z,42.805,6.029,13.3008,4.60039,2470.46,2022-3-07T09:43:01Z
2022-03-07T07:44:29Z,42.805,6.029,13.3010,4.60044,2470.437,2022-3-07T09:46:04Z
2022-03-07T07:47:32Z,42.805,6.029,13.3006,4.60039,2470.45,2022-3-07T09:49:07Z
2022-03-07T07:50:35Z,42.805,6.029,13.3009,4.60042,2470.46,2022-3-07T09:52:10Z
2022-03-07T07:53:38Z,42.805,6.029,13.3009,4.60042,2470.46,2022-3-07T09:55:14Z
2022-03-07T07:56:41Z,42.805,6.029,13.3009,4.60040,2470.46,2022-3-07T09:58:17Z
2022-03-07T07:59:45Z,42.805,6.029,13.3005,4.60039,2470.46,2022-3-07T10:01:20Z
2022-03-07T08:02:48Z,42.805,6.029,13.3006,4.60041,2470.474,2022-3-07T10:04:23Z
2022-03-07T08:05:51Z,42.805,6.029,13.3007,4.60040,2470.497,2022-3-07T10:07:26Z
2022-03-07T08:08:54Z,42.805,6.029,13.3011,4.60040,2470.474,2022-3-07T10:10:29Z
2022-03-07T08:11:57Z,42.805,6.029,13.3004,4.60041,2470.507,2022-3-07T10:13:32Z
2022-03-07T08:15:00Z,42.805,6.029,13.3005,4.60036,2470.497,2022-3-07T10:16:35Z
2022-03-07T08:18:03Z,42.805,6.029,13.3009,4.60036,2470.497,2022-3-07T10:19:38Z
2022-03-07T08:21:06Z,42.805,6.029,13.3006,4.60036,2470.474,2022-3-07T10:22:42Z
2022-03-07T08:24:10Z,42.805,6.029,13.3006,4.60036,2470.507,2022-3-07T10:25:45Z
2022-03-07T08:27:13Z,42.805,6.029,13.3003,4.60037,2470.497,2022-3-07T10:28:48Z
2022-03-07T08:30:16Z,42.805,6.029,13.3004,4.60038,2470.483,2022-3-07T10:31:51Z
2022-03-07T08:33:19Z,42.805,6.029,13.3006,4.60036,2470.53,2022-3-07T10:34:54Z
2022-03-07T08:36:22Z,42.805,6.029,13.3006,4.60039,2470.53,2022-3-07T10:37:57Z
2022-03-07T08:39:25Z,42.805,6.029,13.3005,4.60037,2470.53,2022-3-07T10:41:00Z
2022-03-07T08:42:28Z,42.805,6.029,13.3006,4.60036,2470.53,2022-3-07T10:44:04Z
2022-03-07T08:45:31Z,42.805,6.029,13.3004,4.60039,2470.507,2022-3-07T10:47:07Z
2022-03-07T08:48:35Z,42.805,6.029,13.3005,4.60037,2470.507,2022-3-07T10:50:10Z
2022-03-07T08:51:38Z,42.805,6.029,13.3006,4.60038,2470.544,2022-3-07T10:53:13Z
2022-03-07T08:54:41Z,42.805,6.029,13.3003,4.60038,2470.544,2022-3-07T10:56:16Z
2022-03-07T08:57:44Z,42.805,6.029,13.3004,4.60036,2470.507,2022-3-07T10:59:19Z
2022-03-07T09:00:47Z,42.805,6.029,13.3006,4.60036,2470.52,2022-3-07T11:02:22Z
2022-03-07T09:03:50Z,42.805,6.029,13.3003,4.60036,2470.507,2022-3-07T11:05:25Z
2022-03-07T09:06:53Z,42.805,6.029,13.3007,4.60036,2470.553,2022-3-07T11:08:28Z
2022-03-07T09:09:56Z,42.805,6.029,13.3002,4.60039,2470.567,2022-3-07T11:11:32Z
2022-03-07T09:13:00Z,42.805,6.029,13.3003,4.60038,2470.567,2022-3-07T11:14:35Z
2022-03-07T09:16:03Z,42.805,6.029,13.3003,4.60035,2470.52,2022-3-07T11:17:38Z
2022-03-07T09:19:06Z,42.805,6.029,13.3004,4.60035,2470.567,2022-3-07T11:20:41Z
2022-03-07T09:22:09Z,42.805,6.029,13.3006,4.60037,2470.53,2022-3-07T11:23:44Z
2022-03-07T09:25:12Z,42.805,6.029,13.3006,4.60039,2470.53,2022-3-07T11:26:47Z
2022-03-07T09:28:15Z,42.805,6.029,13.3005,4.60036,2470.507,2022-3-07T11:29:50Z
2022-03-07T09:31:18Z,42.805,6.029,13.3003,4.60042,2470.53,2022-3-07T11:32:53Z
2022-03-07T09:34:21Z,42.805,6.029,13.3002,4.60038,2470.53,2022-3-07T11:35:57Z
2022-03-07T09:37:25Z,42.805,6.029,13.3006,4.60036,2470.544,2022-3-07T11:39:00Z
2022-03-07T09:40:28Z,42.805,6.029,13.3004,4.60038,2470.544,2022-3-07T11:42:03Z
2022-03-07T09:43:31Z,42.805,6.029,13.3004,4.60037,2470.567,2022-3-07T11:45:06Z
2022-03-07T09:46:34Z,42.805,6.029,13.3006,4.60036,2470.53,2022-3-07T11:48:09Z
2022-03-07T09:49:37Z,42.805,6.029,13.3004,4.60036,2470.544,2022-3-07T11:51:12Z
2022-03-07T09:52:40Z,42.805,6.029,13.3001,4.60038,2470.567,2022-3-07T11:54:15Z
2022-03-07T09:55:43Z,42.805,6.029,13.3004,4.60035,2470.507,2022-3-07T11:57:18Z
2022-03-07T09:58:46Z,42.805,6.029,13.3004,4.60036,2470.553,2022-3-07T12:00:22Z
2022-03-07T10:01:49Z,42.805,6.029,13.3003,4.60038,2470.544,2022-3-07T12:03:25Z
2022-03-07T10:04:53Z,42.805,6.029,13.3005,4.60037,2470.553,2022-3-07T12:06:28Z
2022-03-07T10:07:56Z,42.805,6.029,13.3007,4.60038,2470.53,2022-3-07T12:09:31Z
2022-03-07T10:10:59Z,42.805,6.029,13.3004,4.60036,2470.53,2022-3-07T12:12:34Z
2022-03-07T10:14:02Z,42.805,6.029,13.3004,4.60036,2470.507,2022-3-07T12:15:37Z
2022-03-07T10:17:05Z,42.805,6.029,13.3002,4.60038,2470.53,2022-3-07T12:18:40Z
2022-03-07T10:20:08Z,42.805,6.029,13.3005,4.60037,2470.544,2022-3-07T12:21:43Z
2022-03-07T10:23:11Z,42.805,6.029,13.3003,4.60040,2470.544,2022-3-07T12:24:47Z
2022-03-07T10:26:14Z,42.805,6.029,13.3006,4.60037,2470.567,2022-3-07T12:27:50Z
2022-03-07T10:29:18Z,42.805,6.029,13.3003,4.60036,2470.507,2022-3-07T12:30:53Z
2022-03-07T10:32:21Z,42.805,6.029,13.3004,4.60039,2470.544,2022-3-07T12:33:56Z
2022-03-07T10:35:24Z,42.805,6.029,13.3004,4.60036,2470.544,2022-3-07T12:36:59Z
2022-03-07T10:38:27Z,42.805,6.029,13.3002,4.60038,2470.544,2022-3-07T12:40:02Z
2022-03-07T10:41:30Z,42.805,6.029,13.3000,4.60036,2470.577,2022-3-07T12:43:05Z
2022-03-07T10:44:33Z,42.805,6.029,13.3004,4.60035,2470.53,2022-3-07T12:46:08Z
2022-03-07T10:47:36Z,42.805,6.029,13.3004,4.60037,2470.544,2022-3-07T12:49:12Z
2022-03-07T10:50:39Z,42.805,6.029,13.3002,4.60036,2470.53,2022-3-07T12:52:15Z
2022-03-07T10:53:43Z,42.805,6.029,13.3002,4.60036,2470.52,2022-3-07T12:55:18Z
2022-03-07T10:56:46Z,42.805,6.029,13.3004,4.60038,2470.52,2022-3-07T12:58:21Z
2022-03-07T10:59:49Z,42.805,6.029,13.3006,4.60037,2470.52,2022-3-07T13:01:24Z
2022-03-07T11:02:52Z,42.805,6.029,13.3000,4.60034,2470.53,2022-3-07T13:04:27Z
2022-03-07T11:05:55Z,42.805,6.029,13.3004,4.60036,2470.53,2022-3-07T13:07:30Z
2022-03-07T11:08:58Z,42.805,6.029,13.3001,4.60033,2470.507,2022-3-07T13:10:33Z
2022-03-07T11:12:01Z,42.805,6.029,13.3002,4.60035,2470.52,2022-3-07T13:13:37Z
2022-03-07T11:15:04Z,42.805,6.029,13.3003,4.60034,2470.507,2022-3-07T13:16:40Z
2022-03-07T11:18:08Z,42.805,6.029,13.3004,4.60036,2470.53,2022-3-07T13:19:43Z
2022-03-07T11:21:11Z,42.805,6.029,13.3005,4.60036,2470.507,2022-3-07T13:22:46Z
2022-03-07T11:24:14Z,42.805,6.029,13.3004,4.60035,2470.507,2022-3-07T13:25:49Z
2022-03-07T11:27:17Z,42.805,6.029,13.3004,4.60036,2470.52,2022-3-07T13:28:52Z
2022-03-07T11:30:20Z,42.805,6.029,13.3006,4.60038,2470.497,2022-3-07T13:31:55Z
2022-03-07T11:33:23Z,42.805,6.029,13.3004,4.60039,2470.52,2022-3-07T13:34:58Z
2022-03-07T11:36:26Z,42.805,6.029,13.3000,4.60034,2470.507,2022-3-07T13:38:02Z
2022-03-07T11:39:29Z,42.805,6.029,13.3005,4.60035,2470.46,2022-3-07T13:41:05Z
2022-03-07T11:42:33Z,42.805,6.029,13.3001,4.60034,2470.507,2022-3-07T13:44:08Z
2022-03-07T11:45:36Z,42.805,6.029,13.2999,4.60034,2470.53,2022-3-07T13:47:11Z
2022-03-07T11:48:39Z,42.805,6.029,13.2999,4.60035,2470.507,2022-3-07T13:50:14Z
2022-03-07T11:51:42Z,42.805,6.029,13.2999,4.60035,2470.46,2022-3-07T13:53:17Z
2022-03-07T11:54:45Z,42.805,6.029,13.2998,4.60033,2470.507,2022-3-07T13:56:20Z
2022-03-07T11:57:48Z,42.805,6.029,13.2998,4.60031,2470.497,2022-3-07T13:59:23Z
2022-03-07T12:00:51Z,42.805,6.029,13.2999,4.60033,2470.483,2022-3-07T14:02:27Z
2022-03-07T12:03:54Z,42.805,6.029,13.3000,4.60032,2470.507,2022-3-07T14:05:30Z
2022-03-07T12:06:58Z,42.805,6.029,13.2997,4.60032,2470.46,2022-3-07T14:08:33Z
2022-03-07T12:10:01Z,42.805,6.029,13.3001,4.60032,2470.474,2022-3-07T14:11:36Z
2022-03-07T12:13:04Z,42.805,6.029,13.3001,4.60029,2470.497,2022-3-07T14:14:39Z
2022-03-07T12:16:07Z,42.805,6.029,13.3000,4.60031,2470.483,2022-3-07T14:17:42Z
2022-03-07T12:19:10Z,42.805,6.029,13.3000,4.60031,2470.483,2022-3-07T14:20:45Z
2022-03-07T12:22:13Z,42.805,6.029,13.2997,4.60031,2470.497,2022-3-07T14:23:48Z
2022-03-07T12:25:16Z,42.805,6.029,13.3001,4.60031,2470.497,2022-3-07T14:26:52Z
2022-03-07T12:28:19Z,42.805,6.029,13.3000,4.60031,2470.52,2022-3-07T14:29:55Z
2022-03-07T12:31:23Z,42.805,6.029,13.2999,4.60031,2470.483,2022-3-07T14:32:58Z
2022-03-07T12:34:26Z,42.805,6.029,13.2998,4.60032,2470.483,2022-3-07T14:36:01Z
2022-03-07T12:37:29Z,42.805,6.029,13.3002,4.60032,2470.483,2022-3-07T14:39:04Z
2022-03-07T12:40:32Z,42.805,6.029,13.2998,4.60031,2470.497,2022-3-07T14:42:07Z
2022-03-07T12:43:35Z,42.805,6.029,13.2998,4.60031,2470.52,2022-3-07T14:45:10Z
2022-03-07T12:46:38Z,42.805,6.029,13.2996,4.60029,2470.52,2022-3-07T14:48:13Z
2022-03-07T12:49:41Z,42.805,6.029,13.2997,4.60029,2470.507,2022-3-07T14:51:17Z
2022-03-07T12:52:44Z,42.805,6.029,13.2998,4.60029,2470.483,2022-3-07T14:54:20Z
2022-03-07T12:55:48Z,42.805,6.029,13.2997,4.60031,2470.46,2022-3-07T14:57:23Z
2022-03-07T12:58:51Z,42.805,6.029,13.2996,4.60031,2470.45,2022-3-07T15:00:26Z
2022-03-07T13:01:54Z,42.805,6.029,13.2997,4.60029,2470.427,2022-3-07T15:03:29Z
2022-03-07T13:04:57Z,42.805,6.029,13.2992,4.60029,2470.474,2022-3-07T15:06:32Z
2022-03-07T13:08:00Z,42.805,6.029,13.2995,4.60028,2470.474,2022-3-07T15:09:35Z
2022-03-07T13:11:03Z,42.805,6.029,13.2998,4.60028,2470.474,2022-3-07T15:12:38Z
2022-03-07T13:14:06Z,42.805,6.029,13.2999,4.60032,2470.483,2022-3-07T15:15:41Z
2022-03-07T13:17:09Z,42.805,6.029,13.3000,4.60029,2470.46,2022-3-07T15:18:45Z
2022-03-07T13:20:13Z,42.805,6.029,13.2998,4.60028,2470.474,2022-3-07T15:21:48Z
2022-03-07T13:23:16Z,42.805,6.029,13.2997,4.60029,2470.45,2022-3-07T15:24:51Z
2022-03-07T13:26:19Z,42.805,6.029,13.2998,4.60029,2470.474,2022-3-07T15:27:54Z
2022-03-07T13:29:22Z,42.805,6.029,13.2993,4.60029,2470.45,2022-3-07T15:30:57Z
2022-03-07T13:32:25Z,42.805,6.029,13.2996,4.60028,2470.437,2022-3-07T15:34:00Z
2022-03-07T13:35:29Z,42.805,6.029,13.3001,4.60029,2470.46,2022-3-07T15:37:04Z
2022-03-07T13:38:32Z,42.805,6.029,13.2998,4.60029,2470.437,2022-3-07T15:40:07Z
2022-03-07T13:41:35Z,42.805,6.029,13.2996,4.60029,2470.427,2022-3-07T15:43:10Z
2022-03-07T13:44:38Z,42.805,6.029,13.2998,4.60029,2470.46,2022-3-07T15:46:13Z
2022-03-07T13:47:41Z,42.805,6.029,13.2998,4.60029,2470.46,2022-3-07T15:49:17Z
2022-03-07T13:50:44Z,42.805,6.029,13.2996,4.60029,2470.437,2022-3-07T15:52:20Z
2022-03-07T13:53:48Z,42.805,6.029,13.3000,4.60029,2470.437,2022-3-07T15:55:23Z
2022-03-07T13:56:51Z,42.805,6.029,13.3001,4.60026,2470.437,2022-3-07T15:58:26Z
2022-03-07T13:59:54Z,42.805,6.029,13.2996,4.60028,2470.474,2022-3-07T16:01:29Z
2022-03-07T14:02:57Z,42.805,6.029,13.2998,4.60029,2470.413,2022-3-07T16:04:32Z
2022-03-07T14:06:00Z,42.805,6.029,13.2996,4.60030,2470.45,2022-3-07T16:07:35Z
2022-03-07T14:09:03Z,42.805,6.029,13.2996,4.60029,2470.437,2022-3-07T16:10:38Z
2022-03-07T14:12:06Z,42.805,6.029,13.2998,4.60028,2470.413,2022-3-07T16:13:41Z
2022-03-07T14:15:09Z,42.805,6.029,13.2997,4.60028,2470.437,2022-3-07T16:16:45Z
2022-03-07T14:18:13Z,42.805,6.029,13.2998,4.60028,2470.45,2022-3-07T16:19:48Z
2022-03-07T14:21:16Z,42.805,6.029,13.3001,4.60029,2470.474,2022-3-07T16:22:51Z
2022-03-07T14:24:19Z,42.805,6.029,13.2996,4.60026,2470.413,2022-3-07T16:25:54Z
2022-03-07T14:27:22Z,42.805,6.029,13.2996,4.60028,2470.39,2022-3-07T16:28:57Z
2022-03-07T14:30:25Z,42.805,6.029,13.3000,4.60027,2470.427,2022-3-07T16:32:00Z
2022-03-07T14:33:28Z,42.805,6.029,13.2997,4.60027,2470.413,2022-3-07T16:35:03Z
2022-03-07T14:36:31Z,42.805,6.029,13.2999,4.60026,2470.413,2022-3-07T16:38:06Z
2022-03-07T14:39:34Z,42.805,6.029,13.2996,4.60028,2470.45,2022-3-07T16:41:10Z
2022-03-07T14:42:38Z,42.805,6.029,13.3002,4.60026,2470.404,2022-3-07T16:44:13Z
2022-03-07T14:45:41Z,42.805,6.029,13.3000,4.60026,2470.39,2022-3-07T16:47:16Z
2022-03-07T14:48:44Z,42.805,6.029,13.2997,4.60027,2470.427,2022-3-07T16:50:19Z
2022-03-07T14:51:47Z,42.805,6.029,13.2998,4.60029,2470.45,2022-3-07T16:53:22Z
2022-03-07T14:54:50Z,42.805,6.029,13.2997,4.60028,2470.427,2022-3-07T16:56:25Z
2022-03-07T14:57:53Z,42.805,6.029,13.2996,4.60031,2470.404,2022-3-07T16:59:28Z
2022-03-07T15:00:56Z,42.805,6.029,13.2997,4.60028,2470.39,2022-3-07T17:02:31Z
2022-03-07T15:03:59Z,42.805,6.029,13.2997,4.60027,2470.437,2022-3-07T17:05:35Z
2022-03-07T15:07:02Z,42.805,6.029,13.2999,4.60028,2470.413,2022-3-07T17:08:38Z
2022-03-07T15:10:06Z,42.805,6.029,13.2996,4.60026,2470.404,2022-3-07T17:11:41Z
2022-03-07T15:13:09Z,42.805,6.029,13.2998,4.60028,2470.437,2022-3-07T17:14:44Z